Location: Newark
(34.1333°N, 7.9667°W)
Time: 11:24:42
(UTC+00:00)

S-56A Canister/Altair - Pass Details

Date: 13 December 2021
Orbit: 634 x 2499 km, 38.9° (Epoch: 28 January)

Event Time Altitude Azimuth Distance (km) Brightness Sun altitude
Rises 17:27:51 0° 187° (S) 6,010 12.6 -1.7°
Reaches altitude 10° 17:33:24 10° 172° (S) 5,122 12.0 -2.7°
Maximum altitude 17:42:51 20° 133° (SE) 4,328 11.1 -4.5°
Drops below altitude 10° 17:51:48 10° 93° (E) 4,871 11.1 -6.1°
Enters shadow 17:54:33 - 84° (E) 5,267 11.2 -6.7°
